SCP
0 -0 -0 -0 0 -0 -0 0 0 -0 -1 -0 -0 0 0 0 0 0 0 0 0 0 -0 0 0 0 0 -0 0 -0 0 0 -0
0 0 -0 0 -0 0 -0 -0 -0 0 -1 -0 0 0 0 0 0 0 0 0 0 0 0 0 0 -0 -0 -0 0 -0 0 -0 0
0 0 0 0 0 0 0 -0 -0 -0 -2 -1 0 0 0 0 0 0 0 0 0 0 0 0 -0 -0 0 0 0 0 0 0 0
0 0 0 0 0 0 0 0 0 1 -0 0 0 0 0 0 0 0 0 0 0 0 0 0 0 0 0 0 0 -0 0 -0 0
0 0 0 0 0 0 0 1 1 -0 1 1 1 1 1 1 1 0 0 0 1 1 0 0 0 0 0 0 0 0 0 0 0
0 0 0 0 0 0 1 1 1 2 2 2 1 1 1 1 1 1 1 0 1 1 1 1 0 0 0 1 0 0 0 0 0
0 0 1 0 1 1 1 1 2 2 3 3 3 1 0 1 2 1 1 1 1 1 1 1 1 1 1 0 0 0 0 0 0
0 0 0 1 1 1 1 1 2 2 2 4 3 2 1 2 2 1 2 1 1 1 1 1 0 1 1 0 1 0 1 0 0
0 0 0 0 0 1 2 2 2 2 2 1 1 1 2 3 3 3 3 2 2 1 1 1 1 0 1 1 0 0 0 1 1
0 0 1 1 2 1 1 1 1 1 1 1 1 1 2 2 2 2 1 2 3 2 1 1 1 1 1 1 0 0 0 0 1
0 0 1 2 2 1 1 1 1 2 1 1 1 1 1 1 1 1 1 1 1 2 2 1 1 1 1 1 0 0 0 0 0
1 1 1 1 1 1 1 1 1 1 1 1 1 1 1 1 2 1 1 1 1 3 1 1 1 1 0 1 0 0 0 0 1
1 1 1 1 1 1 1 1 1 1 1 1 1 1 1 0 1 1 1 1 1 2 1 0 0 0 0 0 0 0 0 0 1
1 1 1 0 0 0 0 0 0 0 0 0 0 0 0 0 0 0 0 0 0 0 0 0 0 0 0 0 0 0 0 0 0
1 1 0 0 0 0 0 0 0 0 0 0 0 0 0 0 0 0 0 0 0 0 0 0 0 0 0 0 0 0 0 0 0
0 1 1 1 1 0 0 0 0 0 0 0 0 0 0 0 0 0 0 0 0 0 0 0 0 0 0 0 0 0 0 0 0
0 0 0 0 0 0 0 0 0 0 -0 -0 -0 0 0 0 0 0 0 0 0 0 0 0 0 0 0 0 0 0 0 0 0
1 1 0 0 0 0 0 0 0 0 -0 -0 -0 -0 -0 0 -0 0 0 0 0 0 0 0 0 0 0 0 0 0 -0 0 -0
0 0 0 0 0 0 0 0 -0 -0 -0 -0 -0 0 -0 -0 0 -0 -0 0 0 0 0 0 -0 0 0 0 0 -0 -0 -0 -0
-0 -0 0 0 0 -0 -0 0 0 0 0 0 -0 -0 -0 0 -0 -0 0 0 0 0 0 0 0 0 0 0 0 0 0 0 0
Wind_Speed_500mb
12 31 43 46 42 66 60 55 54 46 58 48 42 45 44 37 42 35 33 34 28 26 32 19 25 20 12 16 9 9 14 10 8
20 3 32 29 42 39 58 53 51 65 68 50 35 42 43 42 39 36 30 27 25 21 24 18 16 21 26 19 17 15 15 11 9
29 21 4 27 30 31 50 53 54 66 66 55 39 40 43 45 43 40 42 35 33 27 25 26 22 26 26 27 21 18 26 24 15
38 20 19 10 9 33 37 35 56 67 63 55 45 42 44 42 41 36 40 38 30 35 29 23 26 26 28 22 21 16 21 21 19
13 16 11 7 8 15 22 33 49 48 62 52 51 48 51 48 43 38 39 35 38 34 36 32 32 34 35 30 23 20 27 25 12
15 7 8 10 10 15 18 27 33 46 54 58 54 55 55 55 48 43 40 42 35 38 36 35 33 35 33 28 30 30 28 17 15
7 2 4 10 8 12 16 23 27 49 50 59 58 59 59 61 60 52 46 44 40 39 45 38 39 35 30 30 27 23 24 25 19
8 10 18 15 10 8 17 19 26 38 52 60 64 67 64 69 68 66 53 47 47 42 42 39 35 35 35 28 31 26 28 27 25
21 22 19 20 19 14 12 19 26 33 44 52 58 65 79 64 62 66 59 61 56 49 44 42 38 40 39 38 29 33 34 33 26
25 30 21 13 4 7 11 20 19 28 37 42 49 58 77 71 61 61 66 67 62 57 51 44 44 39 38 37 40 40 37 33 33
14 10 1 10 8 5 15 17 23 26 29 34 41 49 70 77 69 68 68 64 61 51 51 52 44 40 36 35 40 43 40 38 36
15 16 12 10 7 2 10 12 14 24 26 27 30 38 47 51 68 70 67 63 57 57 50 45 47 44 34 36 33 29 30 29 30
9 11 18 14 8 7 15 13 18 19 15 9 10 17 30 38 44 50 53 58 63 56 57 54 44 34 39 39 33 29 31 33 29
14 17 15 17 15 13 16 8 5 7 11 13 15 19 22 25 30 42 50 53 56 55 50 41 38 37 36 34 34 34 34 34 34
16 22 27 22 21 24 31 33 26 25 14 7 2 16 24 32 32 35 32 18 24 30 30 28 23 22 22 24 27 27 29 34 40
25 24 26 23 25 25 21 23 25 17 22 21 25 26 6 24 21 20 32 37 27 29 28 26 25 22 16 11 15 20 16 15 18
23 28 30 20 18 22 22 8 8 11 17 19 23 35 48 50 39 46 42 28 29 34 30 26 26 27 21 21 19 22 20 16 13
17 27 28 20 23 22 18 7 6 7 14 16 16 21 26 34 43 46 40 35 38 32 33 32 27 25 21 18 19 21 17 16 18
6 20 22 20 22 20 17 11 12 6 6 11 17 25 25 25 28 36 36 32 27 28 25 23 19 19 19 18 16 17 19 24 32
31 20 27 20 25 6 5 14 12 10 12 15 14 10 16 22 23 22 26 28 25 29 30 25 19 20 21 20 22 26 30 38 37
Wind_Direction_500mb
128 173 195 200 210 191 190 180 168 187 208 218 217 208 212 215 214 215 220 212 210 234 238 242 222 233 249 214 210 229 262 262 310
132 94 178 204 201 204 190 203 211 191 208 214 214 210 207 213 217 206 219 233 219 240 241 202 237 232 229 218 231 230 252 252 252
136 130 167 186 206 221 211 190 189 194 206 211 217 212 213 214 220 215 210 216 220 201 215 202 213 217 236 219 210 228 250 265 250
135 127 150 189 221 206 219 217 203 203 202 203 211 214 209 212 219 225 219 221 226 220 203 197 192 198 222 226 225 249 266 276 261
103 127 116 172 223 225 233 228 227 226 199 205 216 222 201 214 217 219 221 222 228 245 226 221 218 211 223 230 215 228 251 282 257
158 173 185 225 216 232 243 239 244 210 209 206 211 216 207 209 217 215 221 222 224 234 235 233 225 227 232 233 225 240 253 267 243
200 203 278 270 268 263 242 234 236 212 211 205 205 211 212 213 218 218 215 217 225 225 237 234 230 230 229 230 231 235 238 262 256
288 251 252 246 258 256 222 234 228 220 224 220 219 212 212 217 221 223 218 211 219 221 227 236 234 226 232 231 234 229 250 246 263
278 264 247 243 236 223 261 240 218 232 231 235 233 226 220 219 224 216 216 214 217 224 223 225 228 227 226 228 214 233 239 249 254
260 254 233 226 161 242 266 260 259 240 239 243 236 228 222 219 222 223 225 216 215 220 226 232 233 230 230 228 223 227 233 239 252
294 291 63 142 120 233 253 252 251 245 240 242 244 237 232 231 227 226 229 220 219 222 228 231 231 231 229 226 229 233 237 246 254
103 84 93 108 120 279 275 251 259 244 243 244 247 243 238 237 229 226 223 226 220 217 231 235 230 226 232 233 239 237 237 238 236
140 130 124 108 108 178 246 247 251 228 222 204 221 229 229 229 219 217 221 225 224 228 224 224 226 231 234 247 249 246 244 243 231
132 142 148 126 113 87 65 125 256 209 219 245 240 220 215 220 222 225 212 205 194 198 207 219 225 229 234 241 249 255 251 250 232
155 157 152 144 122 108 99 90 83 79 81 82 234 247 239 233 231 230 241 238 175 181 188 198 206 219 229 234 241 233 219 214 211
167 170 157 164 139 130 117 94 70 90 99 78 77 65 98 211 211 228 218 217 203 189 192 192 189 192 202 206 184 187 193 192 185
179 173 162 132 150 152 158 128 56 65 147 112 79 77 91 96 97 92 99 107 129 139 137 141 149 144 136 130 133 132 126 128 129
183 177 161 161 138 148 148 126 356 45 112 168 171 99 112 111 104 96 94 97 105 107 105 108 112 113 119 119 126 130 132 137 135
208 132 138 137 134 116 106 130 128 128 119 109 126 159 136 119 123 125 122 117 124 129 131 127 120 112 117 131 141 140 140 127 127
102 129 132 157 148 29 90 167 176 151 135 131 121 123 130 131 134 139 140 145 143 135 127 128 128 128 131 142 141 137 130 123 123
Wind_Speed_850mb
12 31 43 46 42 66 60 55 54 46 58 48 42 45 44 37 42 35 33 34 28 26 32 19 25 20 12 16 9 9 14 10 8
20 3 32 29 42 39 58 53 51 65 68 50 35 42 43 42 39 36 30 27 25 21 24 18 16 21 26 19 17 15 15 11 9
29 21 4 27 30 31 50 53 54 66 66 55 39 40 43 45 43 40 42 35 33 27 25 26 22 26 26 27 21 18 26 24 15
38 20 19 10 9 33 37 35 56 67 63 55 45 42 44 42 41 36 40 38 30 35 29 23 26 26 28 22 21 16 21 21 19
13 16 11 7 8 15 22 33 49 48 62 52 51 48 51 48 43 38 39 35 38 34 36 32 32 34 35 30 23 20 27 25 12
15 7 8 10 10 15 18 27 33 46 54 58 54 55 55 55 48 43 40 42 35 38 36 35 33 35 33 28 30 30 28 17 15
7 2 4 10 8 12 16 23 27 49 50 59 58 59 59 61 60 52 46 44 40 39 45 38 39 35 30 30 27 23 24 25 19
8 10 18 15 10 8 17 19 26 38 52 60 64 67 64 69 68 66 53 47 47 42 42 39 35 35 35 28 31 26 28 27 25
21 22 19 20 19 14 12 19 26 33 44 52 58 65 79 64 62 66 59 61 56 49 44 42 38 40 39 38 29 33 34 33 26
25 30 21 13 4 7 11 20 19 28 37 42 49 58 77 71 61 61 66 67 62 57 51 44 44 39 38 37 40 40 37 33 33
14 10 1 10 8 5 15 17 23 26 29 34 41 49 70 77 69 68 68 64 61 51 51 52 44 40 36 35 40 43 40 38 36
15 16 12 10 7 2 10 12 14 24 26 27 30 38 47 51 68 70 67 63 57 57 50 45 47 44 34 36 33 29 30 29 30
9 11 18 14 8 7 15 13 18 19 15 9 10 17 30 38 44 50 53 58 63 56 57 54 44 34 39 39 33 29 31 33 29
14 17 15 17 15 13 16 8 5 7 11 13 15 19 22 25 30 42 50 53 56 55 50 41 38 37 36 34 34 34 34 34 34
16 22 27 22 21 24 31 33 26 25 14 7 2 16 24 32 32 35 32 18 24 30 30 28 23 22 22 24 27 27 29 34 40
25 24 26 23 25 25 21 23 25 17 22 21 25 26 6 24 21 20 32 37 27 29 28 26 25 22 16 11 15 20 16 15 18
23 28 30 20 18 22 22 8 8 11 17 19 23 35 48 50 39 46 42 28 29 34 30 26 26 27 21 21 19 22 20 16 13
17 27 28 20 23 22 18 7 6 7 14 16 16 21 26 34 43 46 40 35 38 32 33 32 27 25 21 18 19 21 17 16 18
6 20 22 20 22 20 17 11 12 6 6 11 17 25 25 25 28 36 36 32 27 28 25 23 19 19 19 18 16 17 19 24 32
31 20 27 20 25 6 5 14 12 10 12 15 14 10 16 22 23 22 26 28 25 29 30 25 19 20 21 20 22 26 30 38 37
Wind_Direction_850mb
128 173 195 200 210 191 190 180 168 187 208 218 217 208 212 215 214 215 220 212 210 234 238 242 222 233 249 214 210 229 262 262 310
132 94 178 204 201 204 190 203 211 191 208 214 214 210 207 213 217 206 219 233 219 240 241 202 237 232 229 218 231 230 252 252 252
136 130 167 186 206 221 211 190 189 194 206 211 217 212 213 214 220 215 210 216 220 201 215 202 213 217 236 219 210 228 250 265 250
135 127 150 189 221 206 219 217 203 203 202 203 211 214 209 212 219 225 219 221 226 220 203 197 192 198 222 226 225 249 266 276 261
103 127 116 172 223 225 233 228 227 226 199 205 216 222 201 214 217 219 221 222 228 245 226 221 218 211 223 230 215 228 251 282 257
158 173 185 225 216 232 243 239 244 210 209 206 211 216 207 209 217 215 221 222 224 234 235 233 225 227 232 233 225 240 253 267 243
200 203 278 270 268 263 242 234 236 212 211 205 205 211 212 213 218 218 215 217 225 225 237 234 230 230 229 230 231 235 238 262 256
288 251 252 246 258 256 222 234 228 220 224 220 219 212 212 217 221 223 218 211 219 221 227 236 234 226 232 231 234 229 250 246 263
278 264 247 243 236 223 261 240 218 232 231 235 233 226 220 219 224 216 216 214 217 224 223 225 228 227 226 228 214 233 239 249 254
260 254 233 226 161 242 266 260 259 240 239 243 236 228 222 219 222 223 225 216 215 220 226 232 233 230 230 228 223 227 233 239 252
294 291 63 142 120 233 253 252 251 245 240 242 244 237 232 231 227 226 229 220 219 222 228 231 231 231 229 226 229 233 237 246 254
103 84 93 108 120 279 275 251 259 244 243 244 247 243 238 237 229 226 223 226 220 217 231 235 230 226 232 233 239 237 237 238 236
140 130 124 108 108 178 246 247 251 228 222 204 221 229 229 229 219 217 221 225 224 228 224 224 226 231 234 247 249 246 244 243 231
132 142 148 126 113 87 65 125 256 209 219 245 240 220 215 220 222 225 212 205 194 198 207 219 225 229 234 241 249 255 251 250 232
155 157 152 144 122 108 99 90 83 79 81 82 234 247 239 233 231 230 241 238 175 181 188 198 206 219 229 234 241 233 219 214 211
167 170 157 164 139 130 117 94 70 90 99 78 77 65 98 211 211 228 218 217 203 189 192 192 189 192 202 206 184 187 193 192 185
179 173 162 132 150 152 158 128 56 65 147 112 79 77 91 96 97 92 99 107 129 139 137 141 149 144 136 130 133 132 126 128 129
183 177 161 161 138 148 148 126 356 45 112 168 171 99 112 111 104 96 94 97 105 107 105 108 112 113 119 119 126 130 132 137 135
208 132 138 137 134 116 106 130 128 128 119 109 126 159 136 119 123 125 122 117 124 129 131 127 120 112 117 131 141 140 140 127 127
102 129 132 157 148 29 90 167 176 151 135 131 121 123 130 131 134 139 140 145 143 135 127 128 128 128 131 142 141 137 130 123 123